This demonstration page uses our WeatherBlox Daily Observations layout. Learn more.

Left ArrowRight Arrow

36.19886, -115.1175

Hourly Observations for February 2, 2019

Temp ( °F °C ) Dew Point ( °F °C ) Humidity (%) Winds ( mph kmh ) Pressure ( in mb ) Visibility ( mi km ) Precip ( " mm )
12:53 am 00:53 Clear 53 11.7 39 3.9 59 59 E 5 7 29.96 1014 10 16 N/A
1:53 am 01:53 Cloudy 53 11.7 39 3.9 59 59 ENE 6 9 29.94 1014 10 16 N/A
2:53 am 02:53 Mostly Cloudy 52 11.1 39 3.9 61 61 WNW 3 6 29.95 1014 10 16 N/A
3:53 am 03:53 Mostly Cloudy 51 10.6 39 3.9 64 64 Calm 29.93 1014 10 16 N/A
4:53 am 04:53 Cloudy with Light Rain 52 11.1 45 7.2 77 77 SE 6 9 29.93 1014 10 16 0.01 0.25
5:53 am 05:53 Cloudy with Light Rain 51 10.6 46 7.8 83 83 E 8 13 29.93 1014 10 16 0.02 0.51
6:53 am 06:53 Cloudy with Light Rain 51 10.6 48 8.9 89 89 E 5 7 29.94 1014 10 16 0.02 0.51
7:53 am 07:53 Cloudy 51 10.6 48 8.9 89 89 ENE 9 15 29.94 1014 10 16 0.01 0.25
8:53 am 08:53 Cloudy with Light Rain 52 11.1 48 8.9 86 86 E 12 19 29.93 1013 9 14 0.00 0.03
9:25 am 09:25 Cloudy with Light Rain 53 11.7 49 9.4 86 86 ESE 9 15 29.88 1012 9 14 0.01 0.25
9:53 am 09:53 Cloudy 54 12.2 49 9.4 83 83 SE 8 13 29.93 1014 9 14 0.01 0.25
10:53 am 10:53 Cloudy 56 13.3 47 8.3 72 72 SSE 13 20 29.90 1013 10 16 0.00 0.00
11:53 am 11:53 Cloudy 56 13.3 47 8.3 72 72 SSE 12 19 29.85 1011 10 16 0.00 0.00
12:53 pm 12:53 Cloudy 57 13.9 47 8.3 69 69 SSE 14 22 29.81 1010 10 16 0.00 0.00
1:53 pm 13:53 Cloudy 57 13.9 46 7.8 67 67 SSE 14 22 29.78 1008 10 16 0.00 0.00
2:53 pm 14:53 Cloudy 56 13.3 47 8.3 72 72 SSE 16 26 29.75 1008 10 16 0.00 0.03
3:53 pm 15:53 Cloudy 56 13.3 47 8.3 72 72 SSE 15 24 29.74 1007 10 16 0.00 0.03
4:53 pm 16:53 Cloudy with Light Rain 56 13.3 47 8.3 72 72 S 16 26 29.71 1006 10 16 0.02 0.51
5:53 pm 17:53 Cloudy with Light Rain 56 13.3 48 8.9 75 75 S 10 17 29.70 1006 10 16 0.02 0.51
6:53 pm 18:53 Cloudy with Light Rain 55 12.8 49 9.4 80 80 S 8 13 29.69 1005 10 16 0.05 1.27
7:53 pm 19:53 Cloudy with Rain 53 11.7 51 10.6 93 93 SE 13 20 29.66 1005 6 10 0.12 3.05
8:53 pm 20:53 Cloudy with Light Rain 54 12.2 50 10 87 87 S 15 24 29.67 1005 6 10 0.06 1.52
9:53 pm 21:53 Mostly Cloudy 54 12.2 46 7.8 75 75 SSW 7 11 29.68 1005 10 16 0.01 0.25
10:53 pm 22:53 Mostly Clear 54 12.2 37 2.8 53 53 SW 20 31 29.67 1005 10 16 0.00 0.03
11:32 pm 23:32 Clear 54 12.2 35 1.7 49 49 WSW 22 35 29.64 1004 10 16 0.00 0.00
11:53 pm 23:53 Clear 53 11.7 35 1.7 51 51 WSW 18 30 29.70 1006 10 16 0.00 0.00

Powered by AerisWeather